COSMOS 1275 DEB, 42119

Orbit data source: Space-Track

COSMOS 1275 DEB, 42119 is space debris in LEO originally from a launch on Thu, 04 Jun 1981 UTC launched from the Plesetsk Missile And Space Complex (PKMTR). Debris objects in space refer to the collection of defunct objects orbiting the Earth. Examples of debris include non-operational satellites, rocket bodies, and fragments generated from explosions, collisions, or faulty payload assembly.

Loading next visibility...
Identifier
42119, 1981-053QF
Orbit
LEO
Country
Flag of CISCIS
Related business
Manufacturer
Unknown
Mission
Spacecraft
Bus & Motor
Unknown
Mass
Unknown
Launch date (UTC)
1981-06-04 (45 years ago)
Launch vehicle
Unknown
Launch site
Plesetsk Missile And Space Complex (PKMTR)
Object type
Payload
Rocket body
Debris
Shape & HBR
Unknown shape, 0.1 m
Radar Cross Section
Small (<0.1 m²)

Expand to show TLE details & history
Last TLE update: 2 weeks ago

TLE from 2 weeks ago
0 COSMOS 1275 DEB
1 42119U 81053QF  26133.07302980  .00001002  00000-0  81845-3 0  9990
2 42119  83.1732 267.0659 0045724 211.5459 148.2962 13.88231230102384
Epoch: 2026-05-13T01:45Z
TLE epoch observation values (Epoch: 2026-05-13T01:45:09.774Z)
Latitude
-0.00012°
Longitude
9.93687°
Altitude
966.256 km
Speed
7.354 km/s
True Right ascension
17h 48m 15s
True Declination
0° 00' 00"
Sunlit
Object was in full shadow at epoch
Visualization orbit readout
Latitude
Unknown
Longitude
Unknown
Altitude
Unknown
Speed
Unknown
Apparent Right ascension
Unknown
Apparent Declination
Unknown
Sunlit
N/A
Visualization observer readout
Local Sidereal Time
06:26:00
Azimuth
Unknown
Elevation
Unknown
Doppler factor
Unknown
Orbital elements
Apogee altitude
965.382 km
Perigee altitude
898.533 km
Semi-major axis
7,310.095 km
Eccentricity
0.00457
Inclination
83.1732°
RAAN
267.0659°
Arg. of periapsis
211.5459°
True anomaly
148.57022°
Mean anomaly
148.2962°
Eccentric anomaly
148.43334°
Mean motion
3.47263 °/min
Orbital period
103.67 mins
BSTAR
0.00081845
Loading maneuver chart data...
Computing Atmospheric mass density...
Loading historical data...
Loading historical data...
Loading historical data...
Loading historical data...
Loading historical data...
Loading historical data...
Loading historical data...

Documentation

Showing up to 5 results
|